Terminal Aerodrome Forecast
Issued by NWS

Home | Current Version | Previous Version | Text Only | Print | Product List | Glossary On
Versions: 1 2 3 4 5 6 7 8 9 10 11 12 13 14 15 16 17 18 19 20 21 22
000
FTUS45 KBOI 052340
TAFMYL
TAF
KMYL 052340Z 0600/0624 29010KT P6SM SCT050
     FM060100 33008KT P6SM SKC
     FM061600 33011G17KT P6SM SCT050 BKN100=

USA.gov is the U.S. government's official web portal to all federal, state and local government web resources and services.